Weather History for KRIL - June, 2013

Change the Weather History Date:

Saturday, June 29, 2013

  Actual Average Record
Temperature  
Mean Temperature 79 °F 70 °F  
Max Temperature 96 °F 89 °F 101 °F (1929)
Min Temperature 61 °F 52 °F 37 °F (1941)
Degree Days  
Heating Degree Days 0 0  
Month to date heating degree days 13 57  
Since 1 June heating degree days 13 57  
Since 1 July heating degree days 6694 6623  
Cooling Degree Days 14 6  
Month to date cooling degree days 140 89  
Year to date cooling degree days 147 96  
Since 1 June cooling degree days 140 89  
Growing Degree Days 28 (Base 50)    
Moisture  
Dew Point 40 °F    
Average Humidity 34    
Maximum Humidity 55    
Minimum Humidity 13    
Precipitation  
Precipitation T in 0.01 in 0.30 in (1938)
Month to date precipitation T 1.00  
Year to date precipitation 3.99 6.42  
Sea Level Pressure  
Sea Level Pressure 29.93 in    
Wind  
Wind Speed 6 mph (WNW)    
Max Wind Speed 26 mph    
Max Gust Speed 40 mph    
Visibility 10 miles    
Events      
T = Trace of Precipitation, MM = Missing Value Source: NWS Daily Summary

Daily Weather History Graph

Daily Weather History Graph

Search for Another Location

Airport or City:

Trip Planner

Search our weather history database for the weather conditions in past years. The results will help you decide how hot, cold, wet, or windy it might be!

Date:

Astronomy

Jun. 29, 2013 Rise Set
Actual Time 5:46 AM MDT 8:42 PM MDT
Civil Twilight 5:14 AM MDT 9:14 PM MDT
Nautical Twilight 4:33 AM MDT 9:55 PM MDT
Astronomical Twilight 3:45 AM MDT 10:42 PM MDT
Moon 12:14 AM MDT (6/29) 12:59 PM MDT (6/29)
Length of Visible Light 16h 00m
Length of Day
14h 55m
Waning Gibbous, 55% of the Moon is Illuminated
Jun 29
Waning Gibbous
Jun 29
Last Quarter
Jul 8
New
Jul 15
First Quarter
Jul 22
Full

Hourly Weather History & Observations

Time (MDT) Temp. Dew Point Humidity Pressure Visibility Wind Dir Wind Speed Gust Speed Precip Events Conditions
12:53 AM 70.0 °F 37.0 °F 30% 29.94 in 10.0 mi ESE 9.2 mph - N/A   Clear
1:53 AM 69.1 °F 41.0 °F 36% 29.94 in 10.0 mi West 4.6 mph - N/A   Clear
2:53 AM 66.0 °F 44.1 °F 45% 29.95 in 10.0 mi Calm Calm - N/A   Clear
3:53 AM 70.0 °F 39.0 °F 32% 29.96 in 10.0 mi Calm Calm - N/A   Clear
4:53 AM 61.0 °F 44.1 °F 54% 29.98 in 10.0 mi Calm Calm - N/A   Clear
5:53 AM 64.0 °F 39.0 °F 40% 29.99 in 10.0 mi Calm Calm - N/A   Clear
6:53 AM 66.0 °F 42.1 °F 42% 29.99 in 10.0 mi Calm Calm - N/A   Clear
7:53 AM 69.1 °F 43.0 °F 39% 30.00 in 10.0 mi NE 3.5 mph - N/A   Clear
8:53 AM 75.0 °F 43.0 °F 32% 30.00 in 10.0 mi NE 4.6 mph - N/A   Clear
9:53 AM 79.0 °F 43.0 °F 28% 29.99 in 10.0 mi WNW 4.6 mph - N/A   Clear
10:53 AM 84.0 °F 43.0 °F 24% 29.97 in 10.0 mi North 4.6 mph - N/A   Clear
11:53 AM 87.1 °F 37.9 °F 18% 29.95 in 10.0 mi Variable 3.5 mph - N/A   Clear
12:53 PM 90.0 °F 37.9 °F 16% 29.91 in 10.0 mi NNW 5.8 mph - N/A   Clear
1:53 PM 93.9 °F 37.9 °F 14% 29.86 in 10.0 mi Variable 5.8 mph - N/A   Clear
2:53 PM 95.0 °F 37.9 °F 14% 29.83 in 10.0 mi NW 5.8 mph - N/A   Clear
3:22 PM 96.8 °F 37.4 °F 13% 30.09 in 10.0 mi West 12.7 mph - 0.00 in   Partly Cloudy
3:53 PM 93.0 °F 37.9 °F 15% 29.81 in 10.0 mi West 18.4 mph 24.2 mph 0.00 in   Clear
4:53 PM 93.0 °F 37.0 °F 14% 29.83 in 10.0 mi West 11.5 mph - N/A   Clear
5:53 PM 91.9 °F 39.9 °F 16% 29.82 in 10.0 mi West 6.9 mph - N/A   Clear
6:41 PM 87.8 °F 39.2 °F 18% 30.09 in 10.0 mi East 23.0 mph 31.1 mph N/A   Clear
6:53 PM 88.0 °F 39.0 °F 18% 29.85 in 10.0 mi ESE 16.1 mph - N/A   Clear
7:53 PM 84.9 °F 39.9 °F 20% 29.86 in 10.0 mi South 6.9 mph - N/A   Clear
8:53 PM 80.1 °F 43.0 °F 27% 29.87 in 10.0 mi NE 11.5 mph - N/A   Clear
9:53 PM 77.0 °F 43.0 °F 30% 29.92 in 10.0 mi SSE 5.8 mph - N/A   Clear
10:53 PM 75.9 °F 41.0 °F 29% 29.92 in 10.0 mi Calm Calm - N/A   Clear
11:53 PM 70.0 °F 41.0 °F 35% 29.93 in 10.0 mi SSE 6.9 mph - N/A   Clear